Hourly Data Report for October 18, 2019

All times are specified in Local Standard Time (LST). Add 1 hour to adjust for Daylight Saving Time where and when it is observed.

SEPT-ILES
QUEBEC
Current Station Operator: ECCC - MSC

50°13'00.000" N
66°15'00.000" W
52.60 m
7047914
71279
XZV

Download Data

Hourly Data (October 2019)
Hourly Data Report for October 18, 2019
TIME Temp Definition
°C
Dew Point Definition
°C
Rel Hum Definition
%
Wind Dir Definition
10's deg

Wind Spd Definition
km/h
Visibility Definition
km
Stn Press Definition
kPa
Hmdx Definition


Wind Chill Definition


Weather Definition


00:00 5.5 4.7 94 6 21   98.67     LegendNANA
01:00 6.1 5.4 96 6 20   98.63     LegendNANA
02:00 6.4 5.6 94 6 15   98.59     LegendNANA
03:00 6.7 5.7 93 6 16   98.60     LegendNANA
04:00 6.7 5.7 94 5 16   98.61     LegendNANA
05:00 6.8 5.8 93 5 15   98.61     LegendNANA
06:00 7.0 5.8 92 3 11   98.65     LegendNANA
07:00 7.2 5.9 92 1 9   98.70     LegendNANA
08:00 7.0 5.9 92 2 14   98.70     LegendNANA
09:00 7.8 6.0 88 2 13   98.73     LegendNANA
10:00 8.0 6.4 90 1 13   98.74     LegendNANA
11:00 8.7 6.9 88 36 11   98.75     LegendNANA
12:00 9.1 7.0 87 35 10   98.76     LegendNANA
13:00 9.7 6.9 83 34 11   98.78     LegendNANA
14:00 9.3 6.2 81 34 14   98.81     LegendNANA
15:00 9.1 5.6 79 32 11   98.85     LegendNANA
16:00 8.6 4.1 73 33 14   98.92     LegendNANA
17:00 8.0 3.9 75 33 10   98.99     LegendNANA
18:00 7.5 3.3 74 31 9   99.07     LegendNANA
19:00 7.3 3.1 74 33 10   99.10     LegendNANA
20:00 7.3 2.7 73 32 12   99.16     LegendNANA
21:00 7.1 2.7 74 32 12   99.18     LegendNANA
22:00 7.0 2.0 71 33 14   99.22     LegendNANA
23:00 6.9 1.9 70 32 11   99.26     LegendNANA

Notes on Data Quality.

Legend

  • E = Estimated
  • M = Missing
  • NA = Not Available
Date modified: